Regional Weather Roundup
Issued by NWS

Home | Current Version | Previous Version | Graphics & Text | Print | Product List | Glossary On
Versions: 1 2 3 4 5 6 7 8 9 10 11 12 13 14 15 16 17 18 19 20 21 22 23 24 25 26 27 28 29 30 31 32 33 34 35 36 37 38 39 40 41 42 43 44 45 46 47 48 49 50
000
ASUS43 KIND 291609
RWRIN

WEATHER ROUNDUP FOR INDIANA
NATIONAL WEATHER SERVICE INDIANAPOLIS IN
1200 PM EDT MON AUG 29 2016

NOTE: "FAIR" INDICATES FEW OR NO CLOUDS BELOW 12,000 FEET WITH NO
SIGNIFICANT WEATHER AND/OR OBSTRUCTIONS TO VISIBILITY.

* - STATION DOES NOT REPORT WEATHER SUCH AS PRECIPITATION OR FOG.

+ - STATION NOT QUALITY CONTROLLED BY THE NATIONAL WEATHER SERVICE.
    USE DATA WITH CAUTION...ESPECIALLY DEWPOINT AND RELATIVE
    HUMIDITY OBSERVATIONS.

INZ001>003-010>013-019-020-291700-
NORTHWEST INDIANA

CITY           SKY/WX    TMP DP  RH WIND       PRES   REMARKS
GARY /AIRPORT/ MOSUNNY   84  70  61 NE7       30.25S
KNOX *+        SUNNY     81  50  34 SE6       30.26S
LA PORTE +     PTSUNNY   81  79  95 SE5       30.28S
MICHIGAN CITY+ SUNNY     81  73  78 MISG      30.26F
MONTICELLO +   SUNNY     81  68  64 E6        30.25S
RENSSELAER +   CLOUDY    81  72  74 E5        30.26S
VALPARAISO     PTSUNNY   82  71  69 E8        30.27R

$$

LMZ046-743>745-291700-
SOUTHERN LAKE MICHIGAN

STATION/POSITION TIME  TEMP    WIND        PRES    WAVE
                       AIR SEA DIR/SP/G            HT
                 (UTC) (F)     (DEG/KT/KT) (MB)    (FT)
BURNS HARBOR     1500   80     120/  5/ 13 1024.7R
MICHIGAN CITY    1500   77     100/  8/ 10   N/A
5NW MICH CITY    1600   78 75  160/  8/ 10   N/A     1

$$

INZ004-005-014>016-021>024-291700-
NORTH CENTRAL INDIANA

CITY           SKY/WX    TMP DP  RH WIND       PRES   REMARKS
ELKHART        MOSUNNY  N/A N/A N/A SE6       30.27S
GOSHEN         SUNNY     81  71  71 SE5       30.28R
LOGANSPORT +   SUNNY     81  70  69 E7        30.27S
PERU/GRISSOM   SUNNY     81  72  75 SE9       30.25S
ROCHESTER +    SUNNY     82  72  69 SE6       30.27S
SOUTH BEND     MOSUNNY   81  72  74 E10       30.27S
WARSAW +       SUNNY     79  73  83 SE5       30.28R

$$

INZ006>009-017-018-025>027-291700-
NORTHEAST INDIANA

CITY           SKY/WX    TMP DP  RH WIND       PRES   REMARKS
ANGOLA *+      MOSUNNY   79  73  83 SE7       30.28S
AUBURN +       CLOUDY    79  70  73 SE6       30.29R
FORT WAYNE     CLOUDY    77  71  82 E7        30.28S
HUNTINGTON +   PTSUNNY   78  74  87 E6        30.27R

$$

INZ028-029-035-036-043>045-051>053-291700-
WEST CENTRAL INDIANA

CITY           SKY/WX    TMP DP  RH WIND       PRES   REMARKS
CRAWFORDSVL +  MOSUNNY   80  72  78 SE3       30.26S
GREENCASTLE +  SUNNY     81  73  78 CALM      30.26S
LAFAYETTE      SUNNY     81  73  76 S5        30.24F
TERRE HAUTE    SUNNY     83  70  64 E5        30.24S

$$

INZ030>032-037>040-046>048-054>057-064-065-291700-
CENTRAL INDIANA

CITY           SKY/WX    TMP DP  RH WIND       PRES   REMARKS
ANDERSON       SUNNY     81  72  74 E6        30.26R
COLUMBUS       SUNNY     81  73  78 CALM      30.24S
INDIANAPOLIS   MOSUNNY   83  68  60 CALM      30.24F
-EAGLE CREEK   SUNNY     83  68  60 VRB3      30.24S
KOKOMO *+      SUNNY     81  72  74 SE8       30.26S
MARION +       MOSUNNY   80  72  75 E7        30.27S HAZE
MT COMFORT *+  SUNNY     81  72  74 E5        30.26S
SHELBYVILLE    SUNNY     84  70  62 E6        30.24S
ZIONSVILLE +   SUNNY     81  69  67 SE6       30.26F

$$

INZ033-034-041-042-049-050-058-059-291700-
EAST CENTRAL INDIANA

CITY           SKY/WX    TMP DP  RH WIND       PRES   REMARKS
MUNCIE         SUNNY     83  73  72 E8        30.26S

$$

INZ060-061-067>069-081>083-085>088-291700-
SOUTHWEST INDIANA

CITY           SKY/WX    TMP DP  RH WIND       PRES   REMARKS
EVANSVILLE     SUNNY     86  68  54 VRB6      30.21S
HUNTINGBURG *+ SUNNY     84  72  65 E5        30.22S
WASHINGTON +   SUNNY     82  72  72 MISG      30.23R

$$

INZ062-063-066-070>080-084-089>092-291700-
SOUTH CENTRAL AND SOUTHEAST INDIANA

CITY           SKY/WX    TMP DP  RH WIND       PRES   REMARKS
BLOOMINGTON    SUNNY     84  67  56 E6        30.24S
MADISON *+     SUNNY     82  70  65 NE3       30.25F

$$




USA.gov is the U.S. government's official web portal to all federal, state and local government web resources and services.